Regional Weather Roundup
Issued by NWS

Home | Current Version | Previous Version | Text Only | Print | Product List | Glossary Off
Versions: 1 2 3 4 5 6 7 8 9 10 11 12 13 14 15 16 17 18 19 20 21 22 23 24 25 26 27 28 29 30 31 32 33 34 35 36 37 38 39 40 41 42 43 44 45 46 47 48 49 50

000
ASUS44 KMEG 222310
RWRTN
TENNESSEE HOURLY STATE WEATHER ROUNDUP
NATIONAL WEATHER SERVICE MEMPHIS TN
600 PM CDT SAT APR 22 2017

TNZ002-004-019-021-049-052-054-088>092-230000-
WEST TENNESSEE

CITY           SKY/WX    TMP DP  RH WIND       PRES   REMARKS
MEMPHIS INTL   LGT RAIN  54  53  97 N9        29.89R
NWS MEMPHIS      N/A     54 N/A N/A MISG        N/A
JACKSON        CLOUDY    56  54  93 NE9       29.88R
DYERSBURG      CLOUDY    52  51  97 MISG      29.92R FOG
SOMERVILLE     CLOUDY    55  54  94 N9        29.87S FOG
UNION CITY     CLOUDY    54  52  94 NE7       29.91R FOG
BOLIVAR        CLOUDY    55  55 100 VRB3      29.86S FOG
PARIS          CLOUDY    52  48  87 NE12      29.91R
HUNTINGDON     CLOUDY    54  52  94 NE9       29.88S
LEXINGTON      CLOUDY    55  54  94 N8        29.86R
SAVANNAH       CLOUDY    59  57  94 N7        29.84F
$$

TNZ008-025-027-028-033-062-065-066-230000-
NORTH MIDDLE TENNESSEE

CITY           SKY/WX    TMP DP  RH WIND       PRES   REMARKS
NASHVILLE      CLOUDY    55  52  89 NE14      29.88F
PORTLAND       CLOUDY    52  50  93 NE14      29.89F
CLARKSVILLE    CLOUDY    54  49  83 NE13      29.90F
SMYRNA         TSTM      56  54  93 N10       29.87F
COOKEVILLE     CLOUDY    55  54  94 N6        29.84F FOG
CROSSVILLE     RAIN      54  52  93 NE10      29.89S FOG
$$

TNZ061-075-076-078-094-096-097-230000-
SOUTH MIDDLE TENNESSEE

CITY           SKY/WX    TMP DP  RH WIND       PRES   REMARKS
FAYETTEVILLE   CLOUDY    59  59 100 E7        29.85R
TULLAHOMA      CLOUDY    57  57 100 E5        29.85R
WINCHESTER     CLOUDY    61  59  94 SE5       29.85S
MCMINNVILLE    PTSUNNY   57  57 100 E3        29.84F
COLUMBIA       CLOUDY   N/A N/A N/A NE6       29.84S
SHELBYVILLE    CLOUDY    61  59  94 N8        29.85S
$$

TNZ017-018-042-046-047-230000-
NORTHEAST TENNESSEE

CITY           SKY/WX    TMP DP  RH WIND       PRES   REMARKS
TRI CITIES     HVY RAIN  61  58  90 N10G18    29.89R FOG
ELIZABETHTON   CLOUDY    66  59  77 CALM      29.87R
$$

TNZ012-013-036-069-073-074-230000-
CENTRAL EAST TENNESSEE

CITY           SKY/WX    TMP DP  RH WIND       PRES   REMARKS
KNOXVILLE      TSTM      62  59  90 E7        29.87R
OAK RIDGE      RAIN      59  57  93 VRB3      29.88R FOG
DOWNTOWN KNOXV PTSUNNY   63  61  94 CALM      29.86F FOG
GATLINBURG     CLOUDY    61  57  88 NW7       29.87R
MORRISTOWN     PTSUNNY   61  61 100 NE7       29.86F FOG
JACKSBORO      CLOUDY    55  54  94 NE9       29.92F FOG
$$

TNZ083-085-099-230000-
SOUTHEAST TENNESSEE

CITY           SKY/WX    TMP DP  RH WIND       PRES   REMARKS
CHATTANOOGA    TSTM      67  59  75 NW17G31   29.82R
$$

SKY/WX REPORTED AS FAIR MEANS FEW OR NO CLOUDS BELOW
12 THOUSAND FEET.





USA.gov is the U.S. government's official web portal to all federal, state and local government web resources and services.